Location: Newark
(52.3500°N, 175.9667°E)
Time: 19:06:20
(UTC+00:00)

Vanguard 1 - All Passes

Search period start: 19 April 2021 00:00
Search period end: 29 April 2021 00:00
Orbit: 648 x 3834 km, 34.3° (Epoch: 18 April)

Date Brightness Start Highest point End Pass type
(mag) Time Alt. Az. Time Alt. Az. Time Alt. Az.
19 Apr - 00:44:19 10° S 00:54:55 22° SE 01:08:53 10° E daylight
19 Apr - 03:00:23 10° SW 03:15:56 41° SSE 03:36:21 10° ESE daylight
19 Apr - 05:20:44 10° WSW 05:39:27 46° S 06:00:08 10° ESE daylight
19 Apr - 07:44:17 10° W 08:02:45 33° SSW 08:19:54 10° SSE visible
19 Apr - 10:15:17 10° WSW 10:23:23 13° SW 10:30:54 10° SSW visible
20 Apr - 01:03:22 10° S 01:14:56 27° SE 01:30:48 10° E daylight
20 Apr - 03:20:38 10° SW 03:36:32 43° SSE 03:57:23 10° ESE daylight
20 Apr - 05:41:32 10° WSW 06:00:11 44° SSW 06:20:33 10° SE daylight
20 Apr - 08:05:48 10° W 08:23:04 29° SW 08:39:10 10° SSE visible
20 Apr - 23:14:35 10° SE 23:16:08 10° ESE 23:17:45 10° ESE daylight
21 Apr - 01:22:53 10° SSW 01:35:06 31° SSE 01:52:24 10° E daylight
21 Apr - 03:41:03 10° WSW 03:57:12 45° S 04:18:17 10° ESE daylight
21 Apr - 06:02:27 10° WSW 06:20:52 41° SSW 06:40:45 10° SE daylight
21 Apr - 08:27:42 10° W 08:43:15 24° SW 08:57:54 10° S visible
21 Apr - 23:29:20 10° SSE 23:35:51 15° SE 23:43:56 10° E daylight
22 Apr - 01:42:42 10° SSW 01:55:25 35° SSE 02:13:46 10° E daylight
22 Apr - 04:01:35 10° WSW 04:17:56 45° S 04:39:04 10° ESE daylight
22 Apr - 06:23:29 10° W 06:41:28 37° SSW 07:00:42 10° SSE daylight
22 Apr - 08:50:14 10° W 09:03:19 19° SW 09:15:48 10° SSW visible
22 Apr - 23:47:27 10° S 23:55:42 19° SE 00:06:47 10° E daylight
23 Apr - 02:02:46 10° SW 02:15:50 39° SSE 02:34:59 10° ESE daylight
23 Apr - 04:22:14 10° WSW 04:38:40 44° S 04:59:41 10° ESE daylight
23 Apr - 06:44:42 10° W 07:02:00 33° SSW 07:20:20 10° SSE daylight
23 Apr - 09:14:13 10° WSW 09:23:16 14° SW 09:32:06 10° SSW visible
24 Apr - 00:06:26 10° S 00:15:41 24° SE 00:28:51 10° E daylight
24 Apr - 02:23:00 10° SW 02:36:23 41° SSE 02:56:03 10° ESE daylight
24 Apr - 04:43:00 10° WSW 04:59:26 42° S 05:20:08 10° SE daylight
24 Apr - 07:06:09 10° W 07:22:25 28° SW 07:39:33 10° SSE daylight
25 Apr - 00:25:55 10° SSW 00:35:48 28° SE 00:50:31 10° E daylight
25 Apr - 02:43:23 10° SW 02:57:00 42° S 03:17:00 10° ESE daylight
25 Apr - 05:03:52 10° WSW 05:20:09 39° SSW 05:40:21 10° SE daylight
25 Apr - 07:28:00 10° W 07:42:44 23° SW 07:58:11 10° S daylight
25 Apr - 22:34:07 10° SE 22:37:16 11° SE 22:40:51 10° ESE daylight
26 Apr - 00:45:43 10° SSW 00:56:04 32° SSE 01:11:56 10° E daylight
26 Apr - 03:03:54 10° WSW 03:17:42 43° S 03:37:49 10° ESE daylight
26 Apr - 05:24:52 10° W 05:40:48 36° SSW 06:00:17 10° SSE daylight
26 Apr - 07:50:31 10° W 08:02:58 19° SW 08:15:55 10° S visible
26 Apr - 22:51:18 10° SSE 22:57:07 16° SE 23:04:39 10° ESE daylight
27 Apr - 01:05:45 10° SW 01:16:27 35° SSE 01:33:11 10° ESE daylight
27 Apr - 03:24:31 10° WSW 03:38:25 42° S 03:58:28 10° SE daylight
27 Apr - 05:46:02 10° W 06:01:25 32° SSW 06:19:52 10° SSE daylight
27 Apr - 08:14:32 10° WSW 08:23:06 14° SW 08:31:55 10° SSW visible
27 Apr - 23:10:04 10° S 23:17:05 20° SE 23:26:56 10° E daylight
28 Apr - 01:25:58 10° SW 01:36:56 37° SSE 01:54:17 10° ESE daylight
28 Apr - 03:45:13 10° WSW 03:59:10 40° S 04:18:56 10° SE daylight
28 Apr - 06:07:28 10° W 06:21:57 27° SSW 06:38:59 10° SSE daylight
28 Apr - 23:29:28 10° SSW 23:37:12 24° SE 23:48:41 10° E daylight
